Location: Observatorio Ernesto Juarez Davis
(29.2175°N, 110.7606°W)
Time: 22:58:17
(UTC-07:00)

Envisat - Visible Passes

Search period start: 15 July 2019 00:00
Search period end: 25 July 2019 00:00
Orbit: 764 x 766 km, 98.1° (Epoch: 15 July)

Date Brightness Start Highest point End Pass type
(mag) Time Alt. Az. Time Alt. Az. Time Alt. Az.
16 Jul 5.6 19:51:59 10° SW 19:55:42 20° W 19:59:27 10° NW visible
18 Jul 6.3 20:21:15 10° W 20:21:24 10° W 20:21:35 10° W visible
19 Jul 5.2 19:40:11 10° SSW 19:44:25 27° W 19:48:40 10° NW visible
21 Jul 5.8 20:07:31 10° SW 20:10:05 14° W 20:12:38 10° WNW visible
24 Jul 5.7 19:55:18 10° SW 19:58:45 18° W 20:02:14 10° NW visible
